Snowfall_Accumulation
0.0 0.0 0.0 0.0 0.0 0.0 0.0 0.0 0.6 0.0 0.0 0.0 0.0 0.0 0.0 0.0 0.0 0.0 0.0 0.0 0.0 0.0 0.0 0.0 0.0 0.0 0.0 0.0 0.0 0.0 0.0 0.0 0.0 0.0 0.0 0.0 0.0 0.0 0.0 0.0 0.0 0.0 0.0 0.0
0.0 0.0 0.0 0.0 0.0 0.0 0.0 0.0 0.0 0.0 0.0 0.0 0.0 0.0 0.0 0.0 0.0 0.0 0.0 0.0 0.0 0.0 0.0 0.0 0.0 0.0 0.0 0.0 0.0 0.0 0.0 0.0 0.0 0.0 0.0 0.0 0.0 0.0 0.0 0.0 0.0 0.0 0.0 0.0
0.0 0.0 0.0 0.1 0.0 0.0 0.0 0.0 0.0 0.0 0.0 0.0 0.0 0.0 0.0 0.0 0.0 0.0 0.0 0.0 0.0 0.0 0.0 0.0 0.0 0.0 0.0 0.0 0.0 0.0 0.0 0.0 0.0 0.0 0.0 0.0 0.0 0.0 0.0 0.0 0.0 0.0 0.0 0.0
0.4 0.1 1.0 0.0 0.0 0.0 0.0 0.0 0.0 0.0 0.0 0.0 0.0 0.1 0.2 0.2 0.0 0.1 0.1 0.1 0.3 0.2 0.0 0.0 0.0 0.0 0.0 0.0 0.0 0.0 0.0 0.0 0.0 0.0 0.0 0.0 0.0 0.0 0.0 0.0 0.0 0.0 0.0 0.0
1.2 0.2 0.0 0.0 0.0 0.0 0.0 0.0 0.0 0.0 0.0 0.0 0.0 0.0 0.8 0.9 1.2 0.8 0.5 0.2 0.2 0.4 0.2 0.0 0.0 0.0 0.0 0.0 0.0 0.0 0.0 0.0 0.0 0.0 0.0 0.0 0.0 0.0 0.0 0.0 0.0 0.0 0.0 0.0
0.6 0.3 1.8 0.0 0.0 0.0 0.0 0.0 0.0 0.0 0.0 0.0 0.0 0.5 1.6 1.1 1.9 1.1 0.6 0.1 0.1 0.1 0.1 0.4 0.0 0.0 0.0 0.0 0.0 0.0 0.0 0.0 0.0 0.0 0.0 0.0 0.0 0.0 0.0 0.0 0.0 0.0 0.0 0.0
0.7 0.9 0.2 0.0 0.0 0.0 0.2 0.0 0.0 0.0 0.0 0.0 0.3 1.0 2.3 2.2 2.4 1.7 1.0 0.2 0.0 0.0 0.0 0.0 0.0 0.0 0.0 0.0 0.0 0.0 0.0 0.0 0.0 0.0 0.0 0.0 0.0 0.0 0.0 0.0 0.0 0.0 0.0 0.0
0.7 1.1 1.5 0.0 0.0 0.0 0.0 0.0 0.0 0.0 0.0 0.0 0.3 0.9 1.1 2.4 2.6 1.6 1.0 0.0 0.0 0.0 0.0 0.0 0.0 0.0 0.0 0.0 0.0 0.0 0.0 0.0 0.0 0.0 0.0 0.0 0.0 0.0 0.0 0.0 0.0 0.0 0.1 0.4
0.0 0.3 0.1 0.0 0.0 0.0 0.0 0.2 0.2 0.1 0.1 0.2 0.8 1.4 1.9 1.8 0.5 0.2 0.1 0.0 0.0 0.0 0.0 0.0 0.0 0.0 0.0 0.0 0.0 0.0 0.0 0.0 0.0 0.0 0.0 0.0 0.0 0.0 0.0 0.0 0.1 0.0 0.4 0.9
0.5 0.6 0.4 0.1 0.1 0.1 0.1 0.3 0.3 0.3 0.2 0.1 0.2 0.4 1.0 0.8 0.3 0.0 0.1 0.0 0.0 0.0 0.0 0.0 0.0 0.0 0.0 0.0 0.0 0.0 0.0 0.0 0.0 0.0 0.0 0.0 0.0 0.0 0.0 0.2 0.3 0.4 1.3 2.4
1.2 0.5 0.3 0.2 0.2 0.3 0.4 0.3 0.1 0.2 0.4 0.5 0.4 0.3 0.4 0.5 0.2 0.1 0.0 0.0 0.0 0.0 0.0 0.0 0.0 0.0 0.0 0.0 0.0 0.0 0.0 0.0 0.0 0.0 0.0 0.1 0.3 0.5 0.7 1.3 0.9 2.3 3.1 3.9
6.3 2.2 0.7 1.1 0.4 0.3 0.4 0.7 0.5 0.3 0.1 0.0 0.0 0.0 0.0 0.0 0.0 0.0 0.0 0.0 0.0 0.0 0.0 0.0 0.0 0.0 0.0 0.0 0.0 0.0 0.0 0.0 0.4 0.5 0.8 0.5 0.7 1.4 nan nan nan nan nan 3.3
1.9 0.9 1.6 2.2 1.2 0.7 0.6 0.4 0.0 0.0 0.0 0.0 0.0 0.0 0.0 0.0 0.0 nan 0.0 0.0 0.0 0.0 0.0 0.0 0.0 0.0 0.0 0.0 0.0 0.1 0.2 0.4 0.6 0.5 1.1 1.7 2.3 2.6 3.9 4.3 nan nan nan nan
1.1 0.9 0.9 0.5 0.7 0.2 0.0 0.0 0.0 0.0 0.0 0.0 0.0 0.0 0.0 0.0 0.0 0.0 0.1 0.0 0.0 0.0 0.0 0.0 0.1 1.2 1.0 0.3 0.2 0.9 2.4 1.3 4.7 5.6 5.5 6.2 5.4 5.0 6.4 7.2 9.2 10.3 nan nan
0.8 0.4 0.5 0.2 0.0 0.0 0.0 0.0 0.0 0.0 0.0 0.0 0.0 0.0 0.0 0.0 0.1 0.2 0.1 0.0 0.0 0.0 0.2 0.3 0.7 2.1 1.9 2.0 1.9 2.7 3.4 5.5 5.7 5.8 6.5 6.5 6.3 6.8 6.8 7.0 7.5 7.7 6.5 4.1
0.0 0.0 0.1 0.1 0.0 0.0 0.0 0.0 0.0 0.1 0.1 0.1 0.1 0.1 0.1 0.1 0.2 0.3 0.3 0.3 0.5 1.3 0.9 3.8 1.0 2.0 0.9 0.5 0.6 1.1 2.5 2.1 3.0 4.9 6.1 6.3 6.4 6.7 6.5 6.8 7.1 7.7 7.2 7.9
0.0 0.0 0.0 0.1 0.2 0.1 0.1 0.2 0.2 0.3 0.2 0.2 0.5 0.3 0.2 0.3 0.4 0.6 1.1 1.1 2.2 3.0 2.3 1.8 4.0 3.1 3.0 3.5 3.6 5.4 5.9 5.9 2.2 5.8 6.3 6.3 6.6 6.7 6.1 6.5 7.0 7.0 10.5 14.2
0.0 0.0 0.0 0.1 0.2 0.2 0.2 0.1 0.2 0.3 0.7 1.1 1.3 3.0 4.3 4.0 2.4 3.0 3.7 3.3 3.5 4.2 4.5 6.3 6.3 6.2 6.0 5.9 5.9 6.3 6.1 6.2 6.0 6.8 6.1 7.1 6.3 5.2 6.6 6.8 6.8 6.9 7.9 6.6
0.0 0.1 0.1 0.2 0.3 0.2 0.3 0.5 0.6 0.8 2.9 2.9 5.0 5.9 6.4 7.0 4.7 6.2 6.4 10.5 13.6 8.7 13.4 8.7 2.4 4.8 6.3 6.3 3.2 5.2 5.5 6.3 4.9 4.5 4.6 6.8 8.6 5.8 6.9 7.9 6.7 8.0 5.3 6.3
0.1 0.1 0.1 0.2 0.2 0.2 0.6 0.9 1.3 2.1 3.1 3.0 7.9 10.5 10.3 14.6 13.6 14.1 9.9 10.8 11.0 13.7 9.6 7.7 5.0 4.2 4.4 2.5 2.5 2.9 4.2 6.7 4.4 6.5 8.1 4.3 9.9 13.8 9.2 6.9 6.2 9.5 15.6 12.3
1.6 2.1 2.4 2.5 4.5 3.9 6.4 8.1 6.5 7.3 10.9 13.6 13.2 16.0 15.8 13.6 13.1 14.7 11.1 6.9 9.1 5.9 3.8 1.5 2.8 3.0 1.9 1.6 1.4 4.1 6.6 9.2 9.2 5.7 5.8 12.2 16.7 12.7 14.9 15.5 13.9 16.6 19.3 15.1
3.6 4.2 6.9 6.4 5.4 6.7 7.6 7.4 6.0 8.6 9.3 12.3 17.2 18.9 13.5 9.2 9.7 8.7 10.0 5.3 5.9 3.0 3.2 3.0 2.3 3.6 2.7 5.1 2.0 7.2 3.8 4.6 6.6 6.8 7.0 11.3 13.6 20.1 20.4 17.5 17.4 19.1 18.6 18.9
4.3 4.3 4.6 5.8 5.8 6.6 5.5 5.7 9.9 8.2 12.0 11.3 13.3 10.4 7.8 6.3 5.7 6.1 6.0 3.1 2.7 4.4 2.2 3.8 4.8 5.5 5.9 8.8 8.2 9.9 9.8 10.3 10.6 10.2 10.3 15.8 15.6 25.5 15.0 14.8 16.4 17.1 22.3 15.2
4.5 4.2 4.8 4.8 4.0 2.4 3.0 6.1 3.8 4.3 9.3 5.9 7.1 9.1 3.5 6.8 9.3 2.5 2.4 5.9 6.0 15.1 11.5 6.4 8.3 6.1 6.7 11.4 12.0 14.1 13.3 14.7 15.4 17.5 8.9 8.9 23.2 18.4 14.9 22.1 14.0 17.0 18.3 15.5
4.4 4.4 4.2 5.0 3.3 4.7 3.0 3.2 2.7 2.4 1.3 1.3 1.4 1.1 1.0 1.8 7.2 4.0 5.7 5.5 6.6 5.2 7.6 6.4 6.3 7.0 14.2 15.4 15.7 16.5 16.9 15.7 17.3 20.0 14.5 20.1 18.1 26.4 23.8 19.0 23.3 23.0 22.7 18.9
3.2 4.1 4.2 3.6 3.6 2.9 2.6 1.8 2.4 2.3 1.7 5.1 3.1 10.7 7.5 4.7 4.1 4.3 6.0 6.6 4.6 6.2 5.6 13.3 18.2 18.0 16.8 12.8 15.1 15.5 12.6 9.1 13.9 14.5 17.2 16.4 16.1 13.6 18.0 16.4 22.1 25.9 30.6 31.9
3.6 1.5 2.6 2.1 1.7 1.8 1.7 1.9 3.6 4.9 5.3 9.0 8.0 7.8 4.9 8.2 10.2 6.8 8.3 12.5 12.7 13.3 13.5 16.1 14.3 10.4 8.8 14.6 12.7 11.8 11.8 12.6 10.7 10.7 21.0 24.3 22.9 30.2 27.3 26.8 29.8 31.3 27.8 24.2
Water_Equivalent
0.00 0.00 0.00 0.00 0.00 0.00 0.01 0.00 0.11 0.00 0.00 0.00 0.00 0.00 0.00 0.00 0.00 0.00 0.00 0.00 0.00 0.00 0.00 0.00 0.00 0.00 0.00 0.00 0.00 0.00 0.00 0.00 0.00 0.00 0.00 0.00 0.00 0.00 0.00 0.00 0.00 0.00 0.00 0.00
0.00 0.00 0.00 0.00 0.00 0.00 0.00 0.00 0.00 0.00 0.00 0.00 0.00 0.00 0.00 0.00 0.00 0.00 0.00 0.00 0.00 0.00 0.00 0.00 0.00 0.00 0.00 0.00 0.00 0.00 0.00 0.00 0.00 0.00 0.00 0.00 0.00 0.00 0.00 0.00 0.00 0.00 0.00 0.00
0.00 0.00 0.00 0.04 0.00 0.00 0.00 0.00 0.00 0.00 0.00 0.00 0.00 0.00 0.00 0.00 0.00 0.00 0.00 0.00 0.01 0.01 0.00 0.00 0.00 0.00 0.00 0.00 0.00 0.00 0.00 0.00 0.00 0.00 0.00 0.00 0.00 0.00 0.00 0.00 0.00 0.00 0.00 0.00
0.13 0.02 0.22 0.00 0.00 0.00 0.00 0.00 0.00 0.00 0.00 0.00 0.00 0.02 0.07 0.05 0.01 0.03 0.03 0.02 0.11 0.03 0.01 0.00 0.00 0.00 0.00 0.00 0.00 0.00 0.00 0.00 0.00 0.00 0.00 0.00 0.00 0.00 0.00 0.00 0.00 0.00 0.00 0.00
0.32 0.07 0.00 0.00 0.00 0.00 0.00 0.00 0.00 0.00 0.00 0.00 0.00 0.00 0.18 0.22 0.25 0.19 0.11 0.04 0.08 0.16 0.06 0.00 0.00 0.00 0.00 0.00 0.00 0.00 0.00 0.00 0.00 0.00 0.00 0.00 0.00 0.00 0.00 0.00 0.00 0.00 0.00 0.00
0.17 0.06 0.44 0.00 0.00 0.00 0.00 0.01 0.00 0.00 0.00 0.00 0.00 0.09 0.28 0.20 0.39 0.22 0.13 0.03 0.02 0.02 0.03 0.07 0.00 0.00 0.00 0.00 0.00 0.00 0.00 0.00 0.00 0.00 0.00 0.00 0.00 0.00 0.00 0.00 0.00 0.00 0.00 0.00
0.21 0.21 0.07 0.00 0.00 0.00 0.06 0.00 0.00 0.00 0.00 0.00 0.08 0.19 0.48 0.47 0.51 0.37 0.23 0.04 0.00 0.00 0.00 0.00 0.00 0.00 0.00 0.00 0.00 0.00 0.00 0.00 0.00 0.00 0.00 0.00 0.00 0.00 0.00 0.00 0.00 0.00 0.00 0.01
0.20 0.27 0.34 0.00 0.00 0.01 0.00 0.00 0.00 0.00 0.00 0.00 0.06 0.16 0.18 0.44 0.49 0.26 0.16 0.00 0.00 0.00 0.00 0.00 0.00 0.00 0.00 0.00 0.00 0.00 0.00 0.00 0.00 0.00 0.00 0.00 0.00 0.00 0.00 0.00 0.00 0.00 0.04 0.10
0.01 0.07 0.03 0.01 0.00 0.00 0.00 0.03 0.04 0.01 0.01 0.05 0.16 0.30 0.42 0.27 0.07 0.03 0.01 0.00 0.00 0.00 0.00 0.00 0.00 0.00 0.00 0.00 0.00 0.00 0.00 0.00 0.00 0.00 0.00 0.00 0.00 0.00 0.00 0.00 0.05 0.02 0.12 0.23
0.08 0.15 0.06 0.02 0.03 0.01 0.02 0.05 0.05 0.04 0.03 0.02 0.03 0.06 0.14 0.11 0.04 0.00 0.01 0.00 0.00 0.00 0.00 0.00 0.00 0.00 0.00 0.00 0.00 0.00 0.00 0.00 0.00 0.00 0.00 0.00 0.00 0.00 0.01 0.07 0.11 0.13 0.31 0.47
0.27 0.10 0.05 0.04 0.05 0.05 0.08 0.04 0.02 0.03 0.08 0.09 0.06 0.05 0.05 0.06 0.03 0.01 0.00 0.00 0.00 0.00 0.00 0.00 0.00 0.00 0.00 0.00 0.00 0.00 0.00 0.00 0.00 0.00 0.00 0.01 0.05 0.08 0.14 0.22 0.21 0.50 0.62 0.79
1.11 0.49 0.14 0.19 0.07 0.06 0.07 0.16 0.11 0.05 0.02 0.00 0.00 0.00 0.00 0.00 0.00 0.00 0.00 0.00 0.00 0.00 0.00 0.00 0.00 0.00 0.00 0.00 0.00 0.00 0.00 0.01 0.11 0.13 0.17 0.09 0.13 0.21 nan nan nan nan nan 0.75
0.36 0.19 0.32 0.39 0.22 0.12 0.09 0.05 0.00 0.00 0.00 0.00 0.00 0.00 0.00 0.00 0.00 nan 0.00 0.00 0.00 0.00 0.00 0.00 0.00 0.00 0.00 0.01 0.00 0.02 0.04 0.07 0.15 0.12 0.21 0.30 0.42 0.53 0.73 0.83 nan nan nan nan
0.19 0.16 0.15 0.08 0.09 0.03 0.00 0.00 0.00 0.00 0.00 0.00 0.00 0.00 0.00 0.00 0.00 0.00 0.01 0.00 0.00 0.00 0.01 0.01 0.02 0.19 0.18 0.06 0.05 0.17 0.48 0.42 0.95 1.05 1.03 1.16 1.02 0.91 1.15 1.15 1.44 1.60 nan nan
0.12 0.06 0.07 0.03 0.00 0.00 0.00 0.00 0.00 0.00 0.00 0.01 0.00 0.00 0.00 0.00 0.01 0.02 0.01 0.00 0.00 0.01 0.03 0.05 0.10 0.29 0.31 0.36 0.35 0.45 0.61 0.91 0.98 1.07 1.19 1.13 1.07 1.07 1.02 1.02 1.05 1.04 0.89 0.73
0.00 0.00 0.01 0.02 0.00 0.00 0.00 0.00 0.00 0.01 0.01 0.01 0.02 0.01 0.01 0.01 0.02 0.03 0.04 0.03 0.07 0.14 0.10 0.66 0.15 0.25 0.14 0.07 0.09 0.19 0.42 0.63 0.62 0.83 1.01 0.99 0.98 1.01 0.94 0.98 0.98 1.05 0.95 0.97
0.00 0.00 0.00 0.02 0.03 0.02 0.02 0.03 0.03 0.04 0.03 0.03 0.07 0.04 0.03 0.04 0.05 0.07 0.10 0.12 0.31 0.44 0.31 0.22 0.44 0.38 0.38 0.46 0.50 0.78 0.82 0.80 0.72 0.81 0.88 0.87 0.94 0.94 0.83 0.90 0.95 0.90 1.39 2.04
0.00 0.00 0.01 0.02 0.03 0.03 0.02 0.02 0.03 0.04 0.08 0.12 0.16 0.50 0.73 0.66 0.24 0.30 0.40 0.38 0.51 0.58 0.48 0.68 0.72 0.73 0.72 0.71 0.69 0.77 0.77 0.81 0.83 0.92 0.81 1.03 0.85 0.72 0.92 0.91 0.91 0.92 1.04 0.94
0.01 0.02 0.02 0.03 0.05 0.03 0.04 0.07 0.08 0.10 0.47 0.40 0.83 0.81 0.86 0.97 0.49 0.61 0.67 1.40 1.75 0.87 1.28 0.91 0.80 0.73 0.65 0.74 0.55 0.67 0.77 1.00 0.71 0.57 0.63 2.03 1.34 0.81 0.97 1.19 0.98 1.26 0.78 0.89
0.02 0.01 0.02 0.03 0.02 0.03 0.08 0.11 0.21 0.25 0.35 0.36 1.16 1.51 1.19 1.81 1.71 1.80 1.16 1.10 1.01 1.32 0.95 0.76 0.50 0.41 0.43 0.32 0.64 0.39 0.67 1.19 0.71 1.20 1.46 0.71 1.56 2.23 1.44 2.17 0.99 1.52 2.60 1.94
0.24 0.30 0.33 0.36 0.60 0.58 0.99 1.24 0.94 0.89 1.30 1.83 1.86 2.17 1.99 1.59 1.67 2.03 1.36 0.72 0.80 0.60 0.39 0.37 0.31 0.35 0.22 0.20 0.22 0.79 1.35 1.87 1.85 1.11 1.08 2.22 2.92 2.05 2.38 2.67 2.38 2.89 3.27 2.49
0.49 0.57 0.99 0.89 0.72 0.84 0.98 0.94 0.74 1.13 1.17 1.65 2.36 2.60 1.91 0.97 1.22 1.11 1.36 0.59 0.59 0.99 0.42 0.41 0.29 1.09 0.74 1.65 0.40 1.58 0.79 0.94 1.31 1.30 1.36 2.17 2.37 3.25 3.28 2.87 2.75 3.21 3.21 3.30
0.53 0.52 0.57 0.73 0.72 0.71 0.63 0.65 1.39 1.18 1.69 1.56 1.85 1.35 1.00 0.73 0.68 0.83 0.78 0.28 0.36 1.24 0.33 0.73 1.52 1.82 1.93 2.04 1.86 2.13 2.05 2.05 2.05 1.87 1.93 2.90 2.73 4.19 2.21 2.17 2.53 2.62 3.69 2.43
0.53 0.50 0.55 0.56 0.46 0.25 0.32 0.60 0.38 0.43 1.32 0.78 1.01 1.40 0.53 1.18 1.74 0.37 0.37 1.96 1.94 3.82 2.76 1.52 2.22 2.00 2.22 2.52 2.41 2.73 2.53 2.72 2.67 2.90 1.46 2.76 4.02 2.84 2.21 3.23 1.93 2.57 2.76 2.40
0.49 0.49 0.48 0.57 0.34 0.55 0.30 0.32 0.26 0.24 0.14 0.17 0.16 0.13 0.14 0.33 1.38 0.74 1.23 1.21 2.08 1.34 1.66 2.02 2.09 2.30 3.07 3.20 2.96 2.90 2.85 2.43 2.71 3.11 2.16 3.28 2.95 4.24 3.65 2.71 3.11 3.33 3.25 2.86
0.32 0.45 0.45 0.34 0.40 0.34 0.31 0.23 0.34 0.34 0.30 0.94 0.56 2.10 1.53 0.92 0.81 0.82 1.19 1.79 0.92 1.90 1.12 2.80 3.61 3.54 3.28 2.28 2.60 2.63 1.98 1.40 2.05 2.02 2.34 2.30 2.28 1.86 2.26 2.08 2.87 3.66 4.56 5.00
0.40 0.31 0.31 0.25 0.22 0.25 0.25 0.27 0.58 0.76 1.11 1.65 1.39 1.43 0.88 1.51 1.95 1.56 2.36 2.41 2.41 2.60 2.64 3.26 2.81 2.67 1.60 2.66 2.20 1.88 1.74 1.86 2.76 1.45 2.67 3.11 2.92 4.05 3.57 3.63 4.19 4.65 3.90 3.29
SL_Ratio
nan nan nan 0.0 nan nan 4.5 4.5 5.3 nan nan nan nan nan nan nan nan nan nan nan nan nan nan nan nan nan nan nan nan nan nan nan nan nan nan nan nan nan nan nan nan nan nan nan
nan nan nan nan nan nan nan nan 0.0 nan nan nan nan nan nan nan nan nan nan nan nan 2.5 nan nan nan nan nan nan nan nan nan nan nan nan nan nan nan nan nan nan nan nan nan nan
10.0 nan nan 3.2 nan nan nan nan nan 4.7 nan nan nan nan 3.1 nan 0.0 nan nan nan 5.8 2.6 10.0 nan nan nan nan nan nan nan nan nan nan nan nan nan nan nan nan nan nan nan nan nan
3.2 2.9 4.4 4.0 nan nan nan nan nan nan nan nan nan 3.4 3.5 3.0 3.3 2.8 4.7 5.0 2.7 5.0 5.4 nan nan nan nan nan nan nan nan nan nan nan nan nan nan nan nan nan nan nan nan nan
3.6 3.6 nan nan nan nan nan nan nan nan nan nan nan nan 4.3 4.1 4.6 4.5 4.9 4.5 2.8 2.7 4.0 5.7 nan nan nan nan nan nan nan nan nan nan nan nan nan nan nan nan nan nan nan nan
3.6 5.5 4.0 nan nan nan nan 4.6 nan nan nan nan nan 5.1 5.6 5.4 4.8 5.1 4.8 3.0 3.8 3.0 4.1 5.1 5.0 nan nan nan nan 5.0 2.7 nan nan nan nan nan nan nan nan nan nan nan nan 3.3
3.5 4.3 3.4 nan nan nan 3.1 3.3 nan nan nan nan 4.4 5.1 4.8 4.7 4.7 4.5 4.3 4.6 5.0 5.0 nan nan 0.0 5.0 5.0 nan nan nan nan nan nan nan nan nan nan nan nan nan nan nan 0.0 4.5
3.4 4.2 4.5 nan nan 5.3 4.0 nan nan nan nan nan 4.5 5.4 6.0 5.4 5.4 6.2 6.6 nan nan nan nan nan nan nan nan 5.0 5.0 nan nan nan nan nan nan nan nan nan nan nan nan nan 2.8 3.7
4.4 4.7 3.9 5.6 nan 10.0 nan 5.4 5.8 4.9 5.4 4.1 4.7 4.6 4.6 6.8 7.0 7.1 6.7 5.7 nan nan nan nan nan nan nan nan nan nan 5.0 nan nan nan nan nan nan nan nan nan 2.6 2.7 3.3 4.0
5.6 4.0 5.6 5.8 4.8 6.0 5.4 5.5 5.8 5.9 6.0 6.0 6.3 6.3 7.0 7.1 7.4 6.7 6.5 nan nan nan nan nan nan nan nan nan nan nan nan nan 6.0 0.0 nan nan nan nan 5.4 2.9 3.0 3.1 4.2 5.2
4.5 5.2 5.1 5.4 5.3 5.5 5.3 5.8 6.1 5.6 5.2 6.1 6.0 6.7 6.8 7.7 7.7 7.4 nan nan nan nan nan nan nan nan nan nan nan nan nan nan 5.0 4.2 5.0 4.9 5.6 6.0 4.9 5.9 4.4 4.6 5.0 5.0
5.7 4.6 5.1 5.7 5.5 5.6 5.9 4.5 5.0 6.1 6.9 5.0 nan nan nan nan nan nan nan nan nan nan nan nan nan nan nan nan nan nan nan 4.8 4.0 3.9 4.8 5.5 5.8 6.6 nan nan nan nan nan 4.4
5.3 4.9 5.2 5.5 5.7 5.8 6.2 6.7 6.7 nan nan nan nan nan nan nan 10.0 nan nan nan 8.3 8.0 7.5 7.5 10.0 7.5 7.3 5.9 nan 5.4 5.5 5.3 4.3 3.9 5.1 5.5 5.6 4.9 5.4 5.2 nan nan nan nan
5.6 5.4 6.2 6.3 7.1 6.0 10.0 nan nan nan nan nan nan nan nan nan nan 10.0 8.6 8.8 6.7 8.6 8.1 7.6 5.8 6.3 5.6 5.3 4.9 5.2 5.0 3.0 5.0 5.3 5.3 5.3 5.3 5.5 5.6 6.2 6.4 6.4 nan nan
6.4 6.1 6.6 7.2 nan nan nan nan nan nan nan 2.7 2.7 4.0 nan 7.3 9.1 9.7 8.9 10.0 nan 6.4 6.5 6.3 6.5 7.2 6.0 5.5 5.6 6.0 5.6 6.0 5.8 5.4 5.5 5.7 5.9 6.4 6.7 6.9 7.1 7.5 7.4 5.6
7.5 7.1 7.6 8.0 nan nan nan nan nan 6.4 7.3 6.5 6.3 6.9 7.4 7.7 8.9 9.4 9.4 9.4 7.6 9.1 9.0 5.7 6.8 8.1 6.8 6.2 6.2 6.0 6.0 3.4 4.9 5.9 6.1 6.3 6.5 6.6 6.9 7.0 7.3 7.4 7.6 8.1
nan 10.0 nan 6.0 5.9 5.9 5.8 5.6 6.2 7.1 7.2 7.7 8.1 7.5 7.5 7.8 8.8 9.9 10.4 9.8 6.9 6.8 7.6 8.4 9.2 8.3 7.9 7.6 7.2 6.9 7.2 7.4 3.0 7.1 7.2 7.2 7.0 7.1 7.4 7.2 7.3 7.8 7.6 7.0
nan 7.5 7.6 6.9 6.8 6.2 6.3 6.2 6.7 7.2 8.3 8.6 8.4 6.0 5.9 6.1 10.2 9.9 9.2 8.6 7.0 7.3 9.3 9.2 8.9 8.5 8.3 8.3 8.5 8.2 7.9 7.6 7.2 7.4 7.5 6.9 7.4 7.3 7.2 7.4 7.5 7.5 7.5 7.0
4.7 5.5 5.8 6.3 6.2 6.3 6.8 7.4 8.0 8.3 6.2 7.2 6.0 7.3 7.4 7.3 9.5 10.1 9.6 7.5 7.7 10.0 10.5 9.6 3.0 6.6 9.7 8.5 5.8 7.8 7.2 6.2 6.8 7.9 7.3 3.4 6.4 7.1 7.1 6.7 6.8 6.4 6.8 7.1
6.3 6.2 6.5 7.2 6.8 7.0 7.7 7.9 6.4 8.5 9.1 8.3 6.9 7.0 8.6 8.1 8.0 7.8 8.5 9.8 10.9 10.4 10.2 10.1 10.0 10.3 10.3 7.7 3.9 7.4 6.3 5.6 6.2 5.4 5.5 6.1 6.3 6.2 6.4 3.2 6.3 6.3 6.0 6.3
6.8 6.9 7.2 7.0 7.4 6.8 6.5 6.5 6.9 8.2 8.4 7.4 7.1 7.4 8.0 8.6 7.8 7.2 8.1 9.6 11.4 9.9 9.6 4.1 8.9 8.7 8.8 7.7 6.1 5.2 4.9 4.9 5.0 5.2 5.3 5.5 5.7 6.2 6.3 5.8 5.8 5.8 5.9 6.1
7.3 7.3 6.9 7.2 7.4 8.0 7.8 7.9 8.1 7.6 7.9 7.4 7.3 7.3 7.1 9.4 7.9 7.8 7.3 9.0 10.0 3.0 7.5 7.3 7.8 3.3 3.6 3.1 5.0 4.6 4.8 4.9 5.1 5.2 5.2 5.2 5.7 6.2 6.2 6.1 6.3 5.9 5.8 5.7
8.1 8.3 8.2 8.0 8.1 9.4 8.9 8.7 7.2 7.0 7.1 7.3 7.2 7.7 7.8 8.7 8.4 7.4 7.7 11.1 7.5 3.5 6.4 5.3 3.2 3.0 3.0 4.3 4.4 4.6 4.8 5.1 5.2 5.4 5.3 5.4 5.7 6.1 6.8 6.8 6.5 6.5 6.1 6.3
8.4 8.4 8.6 8.5 8.5 9.6 9.2 10.3 10.1 10.0 7.0 7.6 7.0 6.5 6.6 5.7 5.4 6.8 6.6 3.0 3.1 4.0 4.2 4.2 3.7 3.0 3.0 4.5 5.0 5.2 5.2 5.4 5.8 6.0 6.1 3.2 5.8 6.5 6.8 6.8 7.3 6.6 6.6 6.5
9.0 8.9 8.8 8.6 9.6 8.6 10.1 10.1 10.3 10.2 8.9 7.9 8.8 8.4 6.7 5.3 5.2 5.4 4.6 4.6 3.2 3.9 4.6 3.2 3.0 3.0 4.6 4.8 5.3 5.7 5.9 6.5 6.4 6.4 6.7 6.1 6.1 6.2 6.5 7.0 7.5 6.9 7.0 6.6
10.0 9.0 9.3 10.4 9.2 8.6 8.4 7.5 7.2 6.7 5.6 5.4 5.5 5.1 4.9 5.2 5.1 5.2 5.0 3.7 5.0 3.3 4.9 4.8 5.0 5.1 5.1 5.6 5.8 5.9 6.3 6.5 6.8 7.2 7.4 7.1 7.1 7.3 8.0 7.9 7.7 7.1 6.7 6.4
9.2 4.9 8.3 8.4 8.0 7.3 7.0 7.0 6.1 6.5 4.8 5.4 5.7 5.5 5.6 5.4 5.3 4.3 3.5 5.2 5.3 5.1 5.1 4.9 5.1 3.9 5.5 5.5 5.8 6.3 6.8 6.8 3.9 7.4 7.9 7.8 7.8 7.5 7.7 7.4 7.1 6.7 7.1 7.3